"TOA5","AWS1","CR1000","7964","CR1000.Std.14","CPU:AWS1_114.CR1","64363","TBL110"
"TIMESTAMP","RECORD","Wind_spd_WVc(1)","Wind_spd_WVc(2)","Air_Temp_Avg","Humidity_Avg","SW_upper_Wm2_Avg","Rain_Tot","Press_Avg","Issui_Tot","Depth_cm","SR50A_Raw","Quality","Ground_Temp_Avg(1)","Ground_Temp_Avg(2)","SW_lower_Wm2_Avg","Albedo_Avg","SWC_per(1)","SWC_per(2)","Period(1)","Period(2)"
"TS","RN","","","","","","","","","","","","","","","","","","",""
"","","WVc","WVc","Avg","Avg","Avg","Tot","Avg","Tot","Smp","Smp","Smp","Avg","Avg","Avg","Avg","Smp","Smp","Smp","Smp"
"2017-04-18 00:00:00",284173,1.717,146.4,10.15,96.6,0.2201024,0,850.3398,1,26.81,2.858,184,0.224,0.511,0,0,56.46,66.7,34.86,37.18
"2017-04-18 00:10:00",284174,1.465,136.9,10.39,94.3,0.139173,0,850.1472,0.5,27.04,2.856,182,0.218,0.508,0,0,56.46,66.7,34.86,37.18
"2017-04-18 00:20:00",284175,1.147,158.4,10.44,97.1,0.1807943,0,850.2008,0.5,26.65,2.86,179,0.206,0.504,0,0,56.46,66.76,34.86,37.19
"2017-04-18 00:30:00",284176,1.274,314.8,9.99,100,0.2279569,0,850.1418,0.5,26.39,2.863,192,0.199,0.505,0.007579097,0.008,56.41,66.7,34.84,37.18
"2017-04-18 00:40:00",284177,0.847,334.2,10.14,100,0.3497956,0,849.8638,0.5,26.81,2.858,186,0.199,0.504,0,0,56.35,66.76,34.83,37.19
"2017-04-18 00:50:00",284178,0.837,30.55,10.56,100,0.5856127,0,849.6848,0.5,26.78,2.857,194,0.204,0.503,0,0,56.29,66.76,34.82,37.19
"2017-04-18 01:00:00",284179,1.075,64.8,10.8,100,0.4873556,0,849.2256,1,26.11,2.862,179,0.188,0.497,0.01515818,0.019,56.35,66.76,34.83,37.19
"2017-04-18 01:10:00",284180,1.156,289.2,11.1,100,0.4126801,0,848.9561,0,26.18,2.86,187,0.179,0.49,0,0,56.29,66.7,34.82,37.18
"2017-04-18 01:20:00",284181,1.407,235.2,11.07,100,0.3380047,0,848.7391,0.5,26.37,2.858,201,0.179,0.477,0.01136863,0.013,56.35,66.76,34.83,37.19
"2017-04-18 01:30:00",284182,1.005,58.89,11.17,100,0.2790504,0,848.6275,0.5,26.12,2.86,205,0.209,0.467,0,0,56.35,66.7,34.83,37.18
"2017-04-18 01:40:00",284183,0.904,87.4,11.23,100,0.3890984,0,848.4127,0.5,26.3,2.858,189,0.199,0.463,0,0,56.29,66.7,34.82,37.18
"2017-04-18 01:50:00",284184,0.871,39.3,11.39,100,0.4008893,0,848.0778,0,26.73,2.854,185,0.204,0.462,0,0,56.23,66.7,34.8,37.18
"2017-04-18 02:00:00",284185,1.363,130.4,11.62,100,0.3340744,0,847.7703,0.5,25.96,2.86,223,0.212,0.462,0,0,56.23,66.7,34.8,37.18
"2017-04-18 02:10:00",284186,1.036,42.68,11.43,100,0.1847235,0,847.6207,0.5,25.51,2.866,178,0.212,0.462,0,0,56.23,66.7,34.8,37.18
"2017-04-18 02:20:00",284187,1.128,12.97,11.47,100,0.2515384,0,847.4985,1,26.01,2.86,188,0.209,0.464,0.007579089,0.008,56.23,66.7,34.8,37.18
"2017-04-18 02:30:00",284188,1.216,137.9,11.6,100,0.286911,0,847.3743,0.5,25.66,2.863,188,0.21,0.462,0,0,56.23,66.7,34.8,37.18
"2017-04-18 02:40:00",284189,0.867,35.06,11.52,100,0.1965144,0,847.3174,0.5,24.38,2.877,176,0.206,0.462,0,0,56.23,66.7,34.8,37.18
"2017-04-18 02:50:00",284190,0.953,38.05,11.29,100,0.3026321,0,847.3511,1,24.77,2.873,193,0.182,0.467,0.007579089,0.008,56.23,66.7,34.8,37.18
"2017-04-18 03:00:00",284191,1.251,129.3,11.43,100,0.3615864,0,847.1805,1.5,24.8,2.872,190,0.199,0.466,0,0,56.29,66.7,34.82,37.18
"2017-04-18 03:10:00",284192,1.31,140.5,11.49,100,0.1572115,0,846.873,1,24.66,2.873,205,0.232,0.462,0,0,56.41,66.7,34.84,37.18
"2017-04-18 03:20:00",284193,0.902,129.3,11.58,100,0.2122355,0,846.9698,0.5,23.75,2.883,194,0.185,0.471,0,0,56.46,66.7,34.86,37.18
"2017-04-18 03:30:00",284194,1.138,82.4,11.46,100,0.2004446,0,846.8098,0,24.01,2.88,198,0.204,0.47,0,0,56.41,66.7,34.84,37.18
"2017-04-18 03:40:00",284195,0.775,87.3,11.42,100,0.2083052,0,846.8688,0.5,24.38,2.877,189,0.188,0.477,0,0,56.41,66.7,34.84,37.18
"2017-04-18 03:50:00",284196,0.704,350.1,10.86,100,0.2122355,0,846.9362,0,23.95,2.885,189,0.186,0.5,0,0,56.35,66.64,34.83,37.16
"2017-04-18 04:00:00",284197,0.305,4.298,10.66,100,0.4362618,0,846.9867,0.5,24.31,2.881,185,0.206,0.503,0,0,56.29,66.7,34.82,37.18
"2017-04-18 04:10:00",284198,0.316,14.39,10.53,100,0.451983,0,847.033,0.5,23.7,2.887,174,0.203,0.504,0,0,56.29,66.64,34.82,37.16
"2017-04-18 04:20:00",284199,0.171,323.2,10.51,100,0.5581007,0,847.1658,0,23.06,2.895,189,0.204,0.504,0,0,56.18,66.64,34.79,37.16
"2017-04-18 04:30:00",284200,0.008,256.1,10.42,100,0.7664059,0,847.3532,1.5,23.41,2.892,189,0.21,0.504,0,0,56.18,66.7,34.79,37.18
"2017-04-18 04:40:00",284201,0,0,10.31,100,0.7467545,0,847.488,1.5,23.05,2.896,222,0.228,0.504,0,0,56.12,66.64,34.78,37.16
"2017-04-18 04:50:00",284202,0.192,129,10.16,100,0.4716344,0,847.6122,0.5,23.55,2.892,181,0.241,0.504,0,0,56.18,66.7,34.79,37.18
"2017-04-18 05:00:00",284203,0.356,2.978,9.77,100,0.1218389,0,847.6944,0,22.87,2.9,185,0.243,0.503,0,0,56.23,66.64,34.8,37.16
"2017-04-18 05:10:00",284204,0.184,319.4,9.37,100,0.1532812,0,847.8818,0,23,2.901,194,0.244,0.497,0,0,56.23,66.7,34.8,37.18
"2017-04-18 05:20:00",284205,0.251,319.8,9.17,100,0.7192425,0,848.1262,0,23.39,2.898,192,0.244,0.491,0,0,56.18,66.7,34.79,37.18
"2017-04-18 05:30:00",284206,0.381,40.74,8.97,100,1.300925,0,848.4674,0,23.45,2.899,187,0.244,0.472,0,0,56.12,66.76,34.78,37.19
"2017-04-18 05:40:00",284207,0.336,56.1,8.66,100,2.016237,0,848.6127,0,23.08,2.904,178,0.245,0.411,0,0,56.06,66.7,34.76,37.18
"2017-04-18 05:50:00",284208,0.446,60.97,8.44,100,5.219421,0,848.5706,0,23.46,2.902,190,0.245,0.403,0.9966502,0.131,56.06,66.76,34.76,37.19
"2017-04-18 06:00:00",284209,0.165,46.79,8.28,100,18.40946,0,848.6823,0,23.87,2.898,194,0.245,0.398,5.460733,0.29,56,66.7,34.75,37.18
"2017-04-18 06:10:00",284210,0.395,136.9,8.34,100,34.16205,0,848.6991,0,23.61,2.901,191,0.241,0.408,10.99347,0.321,56,66.7,34.75,37.18
"2017-04-18 06:20:00",284211,0.49,46.47,8.05,100,43.42574,0,848.7012,0,24.01,2.897,181,0.229,0.41,14.38511,0.331,56,66.7,34.75,37.18
"2017-04-18 06:30:00",284212,0.365,21.29,8.19,100,61.30854,0,848.7201,0,23.52,2.901,181,0.235,0.396,20.54312,0.335,55.95,66.7,34.74,37.18
"2017-04-18 06:40:00",284213,0.936,39,8.59,100,79.87915,0,848.8401,0,23.59,2.898,184,0.241,0.391,26.77692,0.335,55.95,66.7,34.74,37.18
"2017-04-18 06:50:00",284214,0.77,160.1,8.81,100,87.42137,0,848.8044,0,23.33,2.899,185,0.245,0.401,29.13023,0.332,55.89,66.7,34.72,37.18
"2017-04-18 07:00:00",284215,1.153,138,9.17,96.9,114.8823,0,848.8781,0,22.4,2.908,195,0.244,0.393,38.39946,0.334,55.83,66.7,34.71,37.18
"2017-04-18 07:10:00",284216,1.037,133.4,9.09,96.2,141.4903,0,849.0613,0,22.8,2.904,190,0.245,0.379,47.56257,0.336,55.83,66.7,34.71,37.18
"2017-04-18 07:20:00",284217,0.462,94,8.99,97.4,146.4936,0,849.2088,0,23.07,2.902,190,0.245,0.412,49.55587,0.338,55.83,66.64,34.71,37.16
"2017-04-18 07:30:00",284218,0.425,54.08,9.2,97.1,102.3407,0,849.2424,0,23.39,2.896,181,0.245,0.424,42.57174,0.435,55.77,66.64,34.7,37.16
"2017-04-18 07:40:00",284219,0.489,131.2,9.84,89.5,203.974,0,849.432,0,23.45,2.893,170,0.241,0.491,77.76903,0.389,55.77,66.7,34.7,37.18
"2017-04-18 07:50:00",284220,0.56,63.82,9.78,90.6,221.2634,0,849.4805,0,23.36,2.895,176,0.21,0.504,70.15584,0.32,55.77,66.64,34.7,37.16
"2017-04-18 08:00:00",284221,0.903,141.3,9.86,85.5,624.7387,0,849.4825,0,23.01,2.896,188,0.195,0.498,165.3719,0.273,55.72,66.7,34.68,37.18
"2017-04-18 08:10:00",284222,0.757,93.8,10.46,77.82,649.2363,0,849.4678,0,21.61,2.909,173,0.204,0.462,188.5222,0.289,55.77,66.64,34.7,37.16
"2017-04-18 08:20:00",284223,0.61,347.5,10.14,80.4,499.9431,0,849.4092,0,22.08,2.906,183,0.236,0.425,151.9641,0.304,55.77,66.7,34.7,37.18
"2017-04-18 08:30:00",284224,0.581,50.71,10.06,77.46,398.8538,0,849.3635,0,22.47,2.903,178,0.186,0.365,118.2344,0.298,55.72,66.7,34.68,37.18
"2017-04-18 08:40:00",284225,0.273,334.8,10.04,79.19,294.7307,0,849.4042,0,22.76,2.901,182,0.15,0.341,141.1734,0.459,55.72,66.64,34.68,37.16
"2017-04-18 08:50:00",284226,0.382,320.4,9.49,80.3,287.8365,0,849.4898,0,22.81,2.901,182,0.128,0.31,109.7888,0.372,55.66,66.7,34.67,37.18
"2017-04-18 09:00:00",284227,0.414,347.4,9.32,80.8,246.2152,0,849.627,0,22.62,2.906,186,0.126,0.332,78.63017,0.325,55.72,66.7,34.68,37.18
"2017-04-18 09:10:00",284228,0.387,28.89,9.05,79.68,256.1921,0,849.7655,0,22.17,2.91,168,0.159,0.374,89.96762,0.351,55.72,66.7,34.68,37.18
"2017-04-18 09:20:00",284229,0.368,11.72,9.08,79.79,196.3926,0,849.8959,0,22.12,2.911,186,0.159,0.374,68.1318,0.347,55.72,66.7,34.68,37.18
"2017-04-18 09:30:00",284230,0.393,56.68,9.48,77.96,530.0504,0,850.0118,0,22.4,2.902,173,0.151,0.372,140.7753,0.302,55.72,66.7,34.68,37.18
"2017-04-18 09:40:00",284231,0.69,45.74,9.64,73.39,263.6913,0,849.9781,0,22.23,2.909,181,0.153,0.371,90.78925,0.345,55.72,66.7,34.68,37.18
"2017-04-18 09:50:00",284232,0.761,93.8,9.5,73.58,426.9193,0,850.1192,0,21.72,2.91,174,0.145,0.373,133.2859,0.332,55.72,66.7,34.68,37.18
"2017-04-18 10:00:00",284233,0.804,127,10.11,70.44,445.185,0,850.1255,0,21.53,2.913,175,0.153,0.373,141.4382,0.329,55.72,66.7,34.68,37.18
"2017-04-18 10:10:00",284234,0.98,134.6,10.14,69.3,679.2756,0,850.1381,0.5,20.68,2.918,186,0.141,0.354,216.241,0.324,55.72,66.64,34.68,37.16
"2017-04-18 10:20:00",284235,1.117,122,11.03,66.39,1034.995,0,850.0855,0,21.56,2.904,185,0.115,0.297,311.705,0.302,55.72,66.7,34.68,37.18
"2017-04-18 10:30:00",284236,0.981,149.7,11.38,62.51,737.7697,0,850.1192,0,20.53,2.917,181,0.105,0.31,241.8761,0.331,55.66,66.7,34.67,37.18
"2017-04-18 10:40:00",284237,0.783,119.2,10.39,66.14,326.9591,0,850.1339,0,20.86,2.918,183,0.115,0.296,114.0643,0.349,55.66,66.7,34.67,37.18
"2017-04-18 10:50:00",284238,0.244,227.7,10.04,72.42,372.2323,0,850.136,0,21.13,2.914,187,0.115,0.307,131.8615,0.353,55.72,66.7,34.68,37.18
"2017-04-18 11:00:00",284239,0.842,112.7,11.03,63.72,660.4206,0,850.0792,0,21.13,2.914,180,0.115,0.295,224.954,0.334,55.77,66.7,34.7,37.18
"2017-04-18 11:10:00",284240,0.594,66.19,10.98,64.5,918.8195,0,849.736,0,20.42,2.915,185,0.115,0.301,325.6798,0.355,55.83,66.7,34.71,37.18
"2017-04-18 11:20:00",284241,1.019,153,11.67,59.75,1049.543,0,849.5886,0,19.59,2.922,220,0.115,0.289,377.5069,0.36,55.89,66.7,34.72,37.18
"2017-04-18 11:30:00",284242,0.746,120.1,12.18,58.55,1032.492,0,849.3465,0,19.41,2.92,196,0.115,0.286,377.8024,0.366,55.83,66.7,34.71,37.18
"2017-04-18 11:40:00",284243,0.481,72.34,12.98,57.95,1048.608,0,849.3022,0,20.03,2.911,190,0.1,0.26,383.1779,0.365,55.89,66.7,34.72,37.18
"2017-04-18 11:50:00",284244,0.524,301.2,13.1,56.37,1064.379,0,849.1717,0,19.57,2.914,189,0.075,0.256,386.1896,0.363,55.89,66.7,34.72,37.18
"2017-04-18 12:00:00",284245,0.764,118.3,13.16,55.27,1087.713,0,849.1149,0,18.89,2.922,185,0.072,0.228,395.9216,0.364,55.95,66.7,34.74,37.18
"2017-04-18 12:10:00",284246,0.428,142.5,13.45,56.42,950.8129,0,849.0475,0,18.94,2.919,171,0.072,0.215,337.4991,0.348,55.95,66.7,34.74,37.18
"2017-04-18 12:20:00",284247,0.269,77.59,13.56,55.37,907.8931,0,848.9485,0,19.01,2.915,188,0.073,0.203,327.1989,0.353,56,66.7,34.75,37.18
"2017-04-18 12:30:00",284248,0.657,316.3,13.54,55.18,1087.257,0,848.9738,0,18.91,2.922,186,0.072,0.203,388.5459,0.357,56,66.7,34.75,37.18
"2017-04-18 12:40:00",284249,1.088,316,13.05,55.09,1068.818,0,848.8069,0,18.57,2.926,194,0.022,0.202,382.1649,0.357,56,66.7,34.75,37.18
"2017-04-18 12:50:00",284250,0.484,9.31,13.54,54.32,1067.742,0,848.782,0,17.79,2.927,184,-0.014,0.2,381.2828,0.357,56,66.7,34.75,37.18
"2017-04-18 13:00:00",284251,0.488,304.6,14,53.15,1040.481,0,848.6957,0,18.29,2.925,179,0.01,0.199,364.0332,0.349,56.06,66.7,34.76,37.18
"2017-04-18 13:10:00",284252,0.752,303.6,13.37,52.21,934.2967,0,848.6657,0,17.29,2.936,189,-0.006,0.203,331.5719,0.353,56.12,66.7,34.78,37.18
"2017-04-18 13:20:00",284253,0.807,0.253,13.95,49.86,1027.959,0,848.5727,0,16.96,2.935,190,-0.015,0.203,356.7765,0.347,56.12,66.7,34.78,37.18
"2017-04-18 13:30:00",284254,0.498,29.38,14.3,50.56,1071.823,0,848.3899,0,17.11,2.93,180,-0.01,0.204,364.3612,0.34,56.12,66.7,34.78,37.18
"2017-04-18 13:40:00",284255,0.528,35.23,14.73,50.34,1041.115,0,848.3592,0,17.5,2.928,178,0.004,0.196,330.5057,0.316,56.18,66.7,34.79,37.18
"2017-04-18 13:50:00",284256,0.661,278.3,14.88,50.91,1052.135,0,848.4108,0,17.31,2.929,180,0.005,0.161,312.1517,0.296,56.18,66.7,34.79,37.18
"2017-04-18 14:00:00",284257,0.656,314.2,14.74,51.77,1062.732,0,848.364,0,16.66,2.938,174,0.008,0.161,265.5486,0.25,56.23,66.7,34.8,37.18
"2017-04-18 14:10:00",284258,0.816,285.9,13.96,52.57,959.0588,0,848.3583,0,17.43,2.934,187,-0.031,0.184,210.2478,0.222,56.18,66.7,34.79,37.18
"2017-04-18 14:20:00",284259,0.803,271,13.77,51.81,946.4195,0,848.2898,0,17.07,2.934,178,-0.015,0.202,200.4249,0.215,56.23,66.7,34.8,37.18
"2017-04-18 14:30:00",284260,0.612,237.7,13.92,52.06,482.537,0,848.1305,0,16.04,2.948,181,-0.016,0.214,113.7497,0.26,56.23,66.7,34.8,37.18
"2017-04-18 14:40:00",284261,0.515,258.2,12.78,58.07,210.9764,0,848.2331,0,16.82,2.948,197,-0.04,0.201,66.40421,0.317,56.23,66.7,34.8,37.18
"2017-04-18 14:50:00",284262,0.717,269.6,11.34,64.4,140.1375,0,848.5143,0,16.49,2.958,196,0.006,0.158,43.65956,0.318,56.23,66.7,34.8,37.18
"2017-04-18 15:00:00",284263,0.672,246.2,10.88,68.44,352.2297,0,848.6199,0,16.3,2.958,187,0.02,0.161,75.05656,0.235,56.23,66.7,34.8,37.18
"2017-04-18 15:10:00",284264,0.586,234.4,11.42,67.67,341.7277,0,848.6557,0,15.75,2.96,189,0.011,0.183,82.51942,0.244,56.18,66.7,34.79,37.18
"2017-04-18 15:20:00",284265,0.717,266.8,11.54,67.1,299.3304,0,848.6179,0,15.9,2.959,178,-0.04,0.246,67.84753,0.242,56.06,66.7,34.76,37.18
"2017-04-18 15:30:00",284266,0.962,267.8,10.82,68.7,142.1413,0,848.7441,0,15.67,2.969,176,-0.03,0.249,34.10939,0.27,56,66.7,34.75,37.18
"2017-04-18 15:40:00",284267,1.353,304.8,10.38,69.07,139.7054,0,848.8831,0,15.73,2.965,205,0.029,0.194,31.79856,0.274,56.06,66.7,34.76,37.18
"2017-04-18 15:50:00",284268,0.584,248.3,10.5,69.09,134.6017,0,849.0221,0,15.79,2.966,190,0.024,0.207,45.31882,0.335,56,66.7,34.75,37.18
"2017-04-18 16:00:00",284269,0.962,267.3,10.43,68.76,178.8749,0,849.1231,0,16.02,2.963,189,0.03,0.221,61.94612,0.346,55.95,66.7,34.74,37.18
"2017-04-18 16:10:00",284270,0.544,274,10.65,68.34,194.023,0,849.2726,0,15.71,2.966,176,0.038,0.256,67.19866,0.346,55.95,66.76,34.74,37.19
"2017-04-18 16:20:00",284271,0.558,242.7,10.77,68.76,226.8656,0,849.3779,0,15.24,2.968,179,0.052,0.304,78.2343,0.345,55.89,66.7,34.72,37.18
"2017-04-18 16:30:00",284272,0.365,268.9,10.76,69.01,174.9341,0,849.4706,0,15.42,2.969,190,0.059,0.319,57.87261,0.33,55.89,66.7,34.72,37.18
"2017-04-18 16:40:00",284273,0.536,221.4,10.44,70.47,139.8833,0,849.6221,0,15.72,2.967,176,0.06,0.317,45.89637,0.328,55.95,66.7,34.74,37.18
"2017-04-18 16:50:00",284274,0.831,245.4,10.04,70.02,105.824,0,849.7148,0,15.57,2.972,184,0.067,0.321,34.26913,0.323,55.95,66.7,34.74,37.18
"2017-04-18 17:00:00",284275,1.098,277.9,9.27,70.12,36.97233,0,849.9254,0,15.56,2.976,205,0.062,0.304,12.5294,0.34,55.95,66.7,34.74,37.18
"2017-04-18 17:10:00",284276,0.567,148,9.04,71.77,69.17782,0,850.1296,0,15.32,2.978,187,0.074,0.285,23.49903,0.34,55.89,66.7,34.72,37.18
"2017-04-18 17:20:00",284277,0.698,271.8,9.08,70.56,33.32919,0,850.1338,0,15.28,2.979,203,0.089,0.314,11.63645,0.353,55.89,66.7,34.72,37.18
"2017-04-18 17:30:00",284278,0.593,156.8,8.64,72.52,24.16573,0,850.3615,0,15.23,2.982,187,0.099,0.322,8.647165,0.358,55.83,66.7,34.71,37.18
"2017-04-18 17:40:00",284279,0.363,201,8.35,73.12,23.20749,0,850.4716,0,15.32,2.982,195,0.107,0.346,7.359025,0.321,55.83,66.7,34.71,37.18
"2017-04-18 17:50:00",284280,0.402,163.1,8.1,72.92,14.86806,0,850.4319,0,15.36,2.983,181,0.113,0.37,5.57055,0.375,55.77,66.7,34.7,37.18
"2017-04-18 18:00:00",284281,0.584,27.46,7.992,72.31,11.69254,0,850.441,0,15.58,2.981,172,0.115,0.373,4.736907,0.406,55.77,66.7,34.7,37.18
"2017-04-18 18:10:00",284282,0.185,112.9,7.92,73.13,7.565787,0,850.459,0,15.44,2.984,176,0.119,0.374,3.448479,0.457,55.83,66.7,34.71,37.18
"2017-04-18 18:20:00",284283,0.16,46.8,7.682,74.13,3.639442,0,850.4714,0,15.29,2.985,185,0.148,0.374,1.830348,0.522,55.72,66.7,34.68,37.18
"2017-04-18 18:30:00",284284,0.157,284,7.46,75.3,0.1218388,0,850.6086,0,15.25,2.988,173,0.156,0.386,0.3562168,0.254,55.77,66.7,34.7,37.18
"2017-04-18 18:40:00",284285,0.084,162.1,7.081,77.92,0,0,850.5292,0,15.41,2.988,188,0.158,0.39,0,0,55.72,66.7,34.68,37.18
"2017-04-18 18:50:00",284286,0.337,315.4,6.928,79.22,0,0,850.7253,0,15.29,2.991,197,0.158,0.367,0,0,55.66,66.7,34.67,37.18
"2017-04-18 19:00:00",284287,0.14,328.9,6.455,85.4,0,0,850.9211,0,15.15,2.994,173,0.158,0.347,0,0,55.66,66.7,34.67,37.18
"2017-04-18 19:10:00",284288,0.1,265.9,5.484,86.7,0,0,850.9906,0,15.37,2.997,179,0.175,0.333,0,0,55.72,66.7,34.68,37.18
"2017-04-18 19:20:00",284289,0.075,188.1,5.34,89,0,0,851.2097,0,15.22,3.001,172,0.199,0.331,0,0,55.66,66.64,34.67,37.16
"2017-04-18 19:30:00",284290,0.38,184.5,4.593,91,0,0,851.2371,0,15.38,3.002,185,0.225,0.331,0,0,55.66,66.7,34.67,37.18
"2017-04-18 19:40:00",284291,0.177,184.8,4.495,95,0,0,851.3298,0,15.38,3.001,192,0.242,0.334,0,0,55.66,66.64,34.67,37.16
"2017-04-18 19:50:00",284292,0.418,25.35,5.595,88.7,0,0,851.4772,0,15.36,2.992,181,0.256,0.345,0.9095461,0,55.6,66.64,34.65,37.16
"2017-04-18 20:00:00",284293,0.528,106.1,5.847,81.2,0,0,851.4919,0,15.11,3.003,177,0.279,0.367,0.4623765,0,55.6,66.51,34.65,37.14
"2017-04-18 20:10:00",284294,0.248,170.9,4.652,90.4,0,0,851.5867,0,15.3,3.001,186,0.302,0.393,0,0,55.55,66.14,34.64,37.06
"2017-04-18 20:20:00",284295,0.327,187.7,4.631,89.9,0,0,851.5867,0,15.23,3.003,172,0.295,0.411,0,0,55.49,65.96,34.63,37.01
"2017-04-18 20:30:00",284296,0.408,185.6,4.267,91.2,0,0,851.7004,0,15.42,3.003,186,0.313,0.429,0,0,55.49,65.89,34.63,37
"2017-04-18 20:40:00",284297,0.17,189.2,4.381,85.2,0,0,851.7604,0,15.28,3.003,186,0.292,0.449,0,0,55.49,65.77,34.63,36.97
"2017-04-18 20:50:00",284298,0,0,4.86,84.7,0,0,851.9859,0,15.16,3,190,0.254,0.482,0.3108484,0,55.49,65.65,34.63,36.95
"2017-04-18 21:00:00",284299,0.078,181.7,4.667,85.3,0,0,852.0807,0,15.2,3.007,190,0.25,0.494,0.1781693,0,55.43,65.59,34.61,36.93
"2017-04-18 21:10:00",284300,0.53,190.5,3.613,91,0,0,852.2513,0,15.32,3.007,186,0.216,0.501,0,0,55.43,65.46,34.61,36.91
"2017-04-18 21:20:00",284301,0.476,181.7,3.56,89.7,0,0,852.2662,0,15.29,3.008,178,0.19,0.502,0,0,55.43,65.4,34.61,36.89
"2017-04-18 21:30:00",284302,0.522,180.7,3.509,89.4,0,0,852.3139,0,15.29,3.008,189,0.175,0.503,0,0,55.43,65.28,34.61,36.87
"2017-04-18 21:40:00",284303,0.499,182.8,3.703,87.9,0,0,852.3269,0,15.2,3.007,187,0.162,0.504,0.04928087,0,55.37,65.16,34.6,36.84
"2017-04-18 21:50:00",284304,0.459,180.7,3.777,82.1,0,0,852.328,0,15.31,3.006,178,0.164,0.504,0.01895418,0,55.37,65.03,34.6,36.81
"2017-04-18 22:00:00",284305,0.505,182.8,3.728,77.56,0,0,852.3282,0,15.3,3.007,178,0.162,0.504,0,0,55.37,64.97,34.6,36.8
"2017-04-18 22:10:00",284306,0.159,180.4,3.923,73.23,0,0,852.322,0,15.07,3.006,178,0.173,0.504,0.01516335,0,55.37,64.73,34.6,36.74
"2017-04-18 22:20:00",284307,0.06,110.5,4.566,67.08,0,0,852.1429,0,15.26,2.999,173,0.194,0.503,0.439737,0,55.37,64.6,34.6,36.72
"2017-04-18 22:30:00",284308,0.251,48.46,6.388,54.55,0.09435904,0,852.0754,0,15.32,2.99,186,0.194,0.501,2.251757,1.821,55.32,64.54,34.59,36.7
"2017-04-18 22:40:00",284309,0.161,140.5,6.289,56.28,0,0,852.0754,0,15.45,2.998,177,0.166,0.5,0.833984,0,55.32,64.48,34.59,36.69
"2017-04-18 22:50:00",284310,0.302,303,5.092,66.79,0,0,852.0776,0,15.04,3.003,177,0.164,0.507,0,0,55.32,64.42,34.59,36.68
"2017-04-18 23:00:00",284311,0.165,169.5,3.844,71.12,0,0,852.0754,0,15.29,3.008,171,0.173,0.505,0,0,55.26,64.42,34.57,36.68
"2017-04-18 23:10:00",284312,0.313,182.4,3.345,72.61,0,0,852.0712,0,15.41,3.01,176,0.209,0.514,0,0,55.26,64.36,34.57,36.66
"2017-04-18 23:20:00",284313,0.153,194.9,3.486,75.02,0,0,852.0754,0,14.65,3.013,172,0.23,0.528,0.02653919,0,55.2,64.36,34.56,36.66
"2017-04-18 23:30:00",284314,0.235,183,3.338,73,0,0,852.0754,0,15.11,3.01,171,0.251,0.53,0,0,55.2,64.36,34.56,36.66
"2017-04-18 23:40:00",284315,0.151,172.6,3.211,73.89,0,0,852.1766,0,14.94,3.014,191,0.284,0.56,0,0,55.2,64.3,34.56,36.65
"2017-04-18 23:50:00",284316,0.404,160.9,2.883,77.72,0,0,852.3262,0,15.13,3.014,189,0.297,0.549,0,0,55.2,64.3,34.56,36.65
